GFSSE_sfc_thetae_333.txt.gz
Theta_e
299 300 316 327 333 336 339 341 343 347 348 348 348 349 348 349 349 349 349 349 350 349 348 345 346 345 343 343 341 341 341 341 342 341 340 341 341 341 339 339 338 336 339
298 298 311 322 328 330 334 336 338 341 344 347 348 347 347 346 347 348 348 347 347 348 348 347 346 345 343 343 341 341 341 341 342 342 342 341 343 342 340 338 337 335 335
295 296 301 317 322 326 328 331 333 337 341 342 346 347 346 347 345 345 347 347 347 347 348 348 345 346 344 343 342 341 341 340 341 340 338 338 338 338 337 336 335 333 332
295 295 300 313 318 321 324 326 329 332 335 336 339 341 346 347 346 346 345 346 346 346 346 347 347 346 346 344 342 341 341 339 339 338 336 335 335 335 334 333 332 336 338
293 294 299 310 314 317 319 322 324 327 329 331 333 336 339 342 345 344 345 345 345 345 346 346 346 346 346 345 343 342 340 340 338 336 333 334 335 335 338 334 331 332 333
292 293 296 307 310 313 315 317 320 321 323 325 327 329 333 336 337 341 343 343 343 344 346 345 345 345 346 345 344 344 342 341 337 336 334 333 336 336 340 339 333 330 330
291 292 293 302 305 308 311 313 315 316 318 319 321 323 326 329 330 332 334 337 341 342 341 343 345 345 345 344 344 344 343 340 336 335 335 335 335 335 337 339 338 334 331
291 291 292 295 300 303 306 308 310 312 313 314 315 317 319 321 322 325 328 331 333 335 339 342 342 343 344 343 343 342 340 336 336 335 333 332 333 334 336 340 341 338 334
291 290 291 291 293 296 300 303 306 307 308 309 309 309 310 311 313 316 317 323 327 328 332 336 338 340 342 342 342 340 336 334 340 338 334 333 330 334 337 337 340 340 336
290 290 289 290 291 292 293 298 300 302 303 303 303 304 304 304 306 308 310 315 319 320 324 326 329 333 337 339 338 335 332 332 340 339 337 335 331 335 336 337 339 341 339
289 289 289 289 290 291 293 293 295 297 298 298 297 299 298 298 299 300 305 309 312 312 316 319 322 322 323 332 333 331 329 339 340 338 337 331 333 336 336 336 338 341 341
287 288 288 288 288 289 292 291 292 292 293 293 293 294 294 295 296 298 300 302 304 306 309 313 315 316 316 320 328 331 337 337 336 336 336 331 334 337 337 336 336 341 341
286 287 288 288 288 288 289 290 290 292 292 292 291 292 293 293 294 295 296 297 298 300 301 305 308 309 310 313 316 319 333 334 335 335 332 328 333 337 338 336 336 337 342
285 286 287 288 288 288 289 289 289 290 290 290 291 291 291 291 292 293 293 294 294 296 297 299 302 304 306 309 311 313 315 329 332 334 332 324 330 335 338 337 336 336 338
284 285 286 287 287 287 288 288 288 288 289 289 289 290 290 290 290 291 292 292 293 294 295 296 297 299 301 303 306 309 311 314 318 330 331 321 324 331 336 338 338 337 338
284 284 286 286 286 287 287 287 287 288 288 288 289 289 290 290 289 290 290 291 292 294 294 294 295 296 297 299 303 303 304 308 310 314 323 330 324 327 331 335 338 340 339
283 284 285 286 286 286 286 286 287 287 287 287 287 288 288 289 289 289 290 291 292 293 292 293 294 295 296 297 297 298 300 302 306 310 315 324 330 323 325 330 333 336 339
283 283 284 284 284 285 285 285 285 286 286 286 286 287 287 287 288 288 288 289 291 291 290 291 291 292 294 294 294 296 298 301 306 310 311 315 325 329 327 326 328 331 334
282 282 282 283 283 284 285 285 284 284 284 284 285 285 285 285 286 286 286 287 288 288 288 289 290 291 291 292 293 296 298 300 303 304 302 309 309 311 313 321 323 322 326
282 282 282 282 282 283 283 284 284 283 283 283 283 283 284 284 283 284 284 285 286 285 286 288 288 290 290 290 292 294 297 301 300 298 302 305 303 304 308 309 314 321 320
281 281 281 281 281 282 282 282 282 281 282 282 282 283 283 283 283 282 282 283 284 283 284 286 287 287 288 290 290 291 297 299 295 296 300 299 298 300 300 302 304 309 315
281 280 281 281 280 281 282 282 282 282 282 281 282 282 282 282 282 281 281 281 282 281 281 283 285 285 286 288 285 288 287 292 293 294 297 294 295 296 297 299 301 302 306
279 280 280 281 281 280 281 281 281 281 281 280 280 280 281 281 281 281 280 280 280 281 280 281 282 283 282 285 287 284 282 281 285 293 293 292 292 293 295 296 299 300 302
279 280 281 281 281 280 280 280 279 278 278 278 279 280 280 281 280 280 280 280 280 280 279 280 280 283 283 281 285 285 286 285 282 283 287 290 290 290 291 293 294 297 300
280 280 280 280 280 280 279 279 278 278 279 279 279 279 279 280 280 280 280 279 279 279 279 279 279 280 282 282 282 282 284 284 286 281 280 283 286 289 291 291 295 294 296
280 280 279 280 279 280 279 278 278 278 278 278 278 278 278 279 279 279 279 279 279 279 278 279 279 279 280 281 281 282 282 280 280 280 280 281 281 285 287 291 292 292 294

GFSSE_sfc_thetae_336.txt.gz
Theta_e
299 299 311 323 330 334 337 339 342 345 346 348 347 348 348 348 348 348 347 348 348 347 347 346 345 345 343 343 341 341 340 340 339 339 340 341 341 340 339 337 337 333 338
299 298 308 319 325 329 332 335 337 340 342 344 347 346 345 345 346 347 348 347 347 347 348 347 345 345 343 343 340 340 340 341 341 340 340 340 343 341 339 337 336 333 333
298 298 303 316 321 324 328 331 333 336 338 340 342 343 347 346 345 344 344 345 346 346 346 347 345 345 344 343 341 340 341 340 340 340 337 333 335 338 336 335 332 331 331
298 299 303 312 317 320 323 326 328 331 333 335 336 339 341 344 345 345 345 345 344 344 346 346 347 345 345 344 342 341 341 340 340 339 333 332 332 335 334 332 331 334 336
298 298 302 310 314 317 319 322 323 326 327 329 331 335 337 338 340 343 344 344 343 344 345 346 345 346 345 345 343 342 341 340 339 335 332 333 334 334 337 335 333 331 334
298 298 299 307 310 313 315 317 319 321 322 324 327 329 330 332 333 335 337 338 341 343 342 342 345 344 344 345 344 344 342 341 337 334 334 333 334 334 338 341 336 332 329
297 297 297 302 306 309 311 313 315 316 317 318 319 322 323 325 327 328 331 333 334 336 339 342 342 342 343 344 344 343 342 340 337 337 336 335 335 336 338 338 339 338 333
296 297 297 297 300 303 307 309 310 311 312 312 314 315 315 317 318 321 324 328 328 330 333 335 337 339 341 342 343 342 340 336 337 339 338 336 336 336 338 337 339 340 338
296 296 297 297 297 299 301 303 305 306 306 307 308 308 308 309 311 313 316 321 322 324 326 328 330 331 335 339 340 338 336 334 340 339 338 338 336 335 336 337 338 339 340
296 296 296 297 297 298 299 299 300 302 302 302 303 303 303 305 306 307 309 312 314 317 320 322 323 324 325 333 335 334 331 331 338 338 339 338 337 337 338 337 337 338 340
294 295 295 295 296 297 297 297 298 299 299 300 300 300 302 303 303 305 304 305 308 310 312 316 317 318 317 325 327 327 328 337 336 335 335 335 336 338 340 339 337 337 340
292 293 294 295 295 296 296 297 298 298 298 298 299 299 300 301 301 301 302 302 304 304 307 309 311 311 312 316 320 324 331 337 337 338 337 333 336 338 340 339 338 337 338
291 292 293 293 294 295 296 297 297 297 297 297 297 298 299 300 300 301 301 301 302 302 303 305 307 307 308 308 310 314 317 323 333 336 335 331 335 337 339 339 339 337 339
290 291 292 293 293 294 295 295 295 295 296 295 296 296 297 298 298 298 299 300 300 301 301 302 303 304 305 307 309 310 311 313 318 323 331 326 330 334 338 339 339 339 338
289 290 291 292 292 293 293 294 294 294 294 294 295 295 295 296 296 297 298 298 299 299 299 300 301 302 303 304 306 306 306 308 309 311 316 318 325 331 335 338 339 339 339
288 289 290 290 291 292 292 292 293 293 293 293 293 293 294 295 295 296 296 296 296 297 297 298 299 300 302 302 302 303 304 306 308 310 312 316 320 325 331 334 336 338 339
287 288 289 290 290 290 290 291 291 291 291 291 291 291 291 292 293 293 293 293 294 295 296 297 297 299 299 299 300 302 303 306 308 311 314 318 310 311 313 317 321 331 335
287 286 287 288 289 288 289 289 289 289 289 289 289 289 289 289 290 290 290 290 292 293 294 294 295 296 296 296 297 300 303 307 306 306 310 311 305 308 307 308 310 314 321
286 286 286 288 288 288 288 288 288 288 288 288 288 288 288 288 289 289 289 289 290 291 291 292 293 294 293 294 295 298 302 307 301 304 306 302 303 301 303 304 305 308 310
286 286 286 287 287 288 288 288 288 288 287 288 287 287 287 287 287 288 288 288 288 288 289 290 290 292 292 292 293 296 302 305 298 302 302 298 299 299 300 301 303 304 306
286 286 285 286 286 288 288 288 287 286 286 286 286 286 287 286 286 286 286 287 287 286 286 288 289 289 289 291 292 294 298 302 297 300 300 297 295 296 297 298 300 302 303
285 285 285 285 285 286 287 287 288 287 286 286 286 286 286 286 286 285 286 285 286 286 285 285 287 287 288 290 287 291 289 294 292 296 297 294 292 294 294 295 296 298 299
285 285 285 285 285 285 286 286 286 286 286 286 285 285 285 286 286 285 285 285 285 285 284 284 285 286 285 287 288 287 286 284 287 294 293 293 291 291 293 293 295 295 297
286 287 286 286 285 285 285 286 285 285 284 284 284 285 285 285 285 285 285 285 285 285 284 284 284 285 286 284 287 288 288 286 285 283 289 290 289 289 291 291 293 294 295
287 286 287 286 285 285 285 285 286 284 285 285 285 284 284 285 284 284 284 284 284 284 284 283 283 284 284 284 284 285 286 286 286 283 282 284 287 288 288 291 291 292 294
287 287 287 285 285 285 285 284 284 284 284 284 284 284 284 284 284 284 284 284 284 283 283 283 283 283 283 284 284 284 283 282 282 281 281 282 282 285 287 290 289 291 291

GFSSE_sfc_thetae_339.txt.gz
Theta_e
303 300 311 322 328 332 335 338 340 342 344 346 347 346 346 347 348 347 347 347 348 347 347 347 344 345 344 342 341 340 339 338 338 339 340 340 340 338 337 335 338 332 336
302 300 309 318 324 328 331 333 336 339 340 342 344 346 346 345 345 345 346 346 346 346 347 347 345 344 343 342 340 340 339 339 339 339 339 344 342 339 337 336 335 330 331
301 301 306 315 320 323 327 329 331 334 335 338 340 343 344 346 346 346 345 345 344 345 345 346 346 345 344 343 340 340 340 340 339 338 338 335 338 339 336 334 331 329 332
301 301 305 312 317 320 322 325 327 329 331 334 336 339 341 341 343 344 345 344 344 345 345 345 345 346 346 344 342 340 341 340 340 339 332 331 330 336 333 332 330 332 334
301 301 304 310 314 317 319 320 322 324 326 328 331 333 335 336 338 339 339 341 343 343 343 343 345 344 344 344 344 343 342 341 339 336 333 331 332 334 336 335 334 332 332
300 301 301 307 311 314 315 317 318 320 321 322 324 327 328 330 331 333 335 336 336 338 340 342 342 342 343 344 345 343 343 342 338 334 334 334 331 335 336 339 339 337 333
300 300 300 303 306 310 312 313 314 315 315 317 319 320 321 322 324 326 329 331 331 334 336 337 338 339 341 341 343 343 342 340 336 337 336 335 334 339 337 338 338 339 339
299 300 300 301 301 304 307 309 310 310 311 312 313 314 314 316 317 319 322 324 326 328 329 330 332 333 334 338 340 340 340 336 337 337 336 336 338 336 337 338 338 338 340
299 299 300 300 301 302 302 304 305 306 307 307 308 308 308 310 312 312 314 317 319 322 325 326 326 326 328 333 337 336 334 333 338 338 337 337 339 336 337 337 337 338 339
298 298 298 299 300 300 301 300 301 303 303 304 304 304 305 307 308 308 307 310 312 314 317 319 319 320 321 326 328 327 330 330 335 334 337 338 338 337 339 339 339 338 338
297 297 298 298 299 300 299 299 301 301 302 302 303 303 305 304 304 306 305 306 308 309 311 313 314 314 316 321 324 321 324 335 336 335 334 335 339 338 340 340 340 339 338
294 295 296 297 297 299 299 300 301 301 301 300 300 302 302 303 302 303 305 305 306 306 308 310 311 313 314 314 314 317 321 325 331 335 336 334 337 338 339 339 339 338 339
293 294 295 296 297 298 298 299 299 299 299 299 299 300 301 302 302 302 303 303 304 304 303 305 306 306 308 309 311 314 315 316 319 322 327 324 328 335 338 338 339 338 340
292 293 294 295 295 296 298 297 297 297 297 297 297 298 299 299 300 300 300 301 301 302 301 302 303 304 305 306 307 308 308 310 312 313 315 316 321 328 334 337 337 338 339
291 292 292 294 294 295 295 296 296 295 295 295 295 295 297 297 297 298 298 299 298 299 299 300 300 302 303 303 304 304 305 307 309 311 312 315 315 318 322 324 328 332 335
290 291 292 292 293 293 293 294 293 293 293 293 292 292 293 294 294 294 295 294 295 296 297 298 298 299 300 300 301 303 304 307 309 312 314 312 313 310 312 316 319 323 325
289 291 291 291 291 291 291 291 291 291 291 291 291 291 291 292 292 292 292 292 293 295 295 296 296 298 297 298 299 301 305 309 306 309 311 307 306 307 308 310 313 314 317
288 288 289 290 290 290 290 290 290 290 290 290 290 290 290 290 291 291 291 290 292 293 294 294 294 295 295 295 296 299 304 304 304 307 302 302 301 301 303 305 307 309 312
288 288 288 289 289 289 289 290 290 290 290 290 290 289 289 289 290 290 289 290 291 291 291 292 293 294 293 294 295 298 305 300 301 302 298 297 297 299 298 301 303 304 306
288 288 288 288 289 289 290 290 290 289 289 289 289 289 289 289 289 289 289 289 290 289 289 290 291 293 292 292 293 297 302 303 299 300 296 296 295 297 297 297 299 300 303
288 287 287 287 288 289 290 290 289 287 288 288 288 288 288 288 288 288 288 288 288 288 287 287 289 290 290 291 291 294 297 302 295 297 296 296 293 295 295 295 297 297 299
287 287 287 287 287 288 289 289 289 288 287 287 288 288 288 288 288 287 287 287 287 287 286 286 287 288 289 290 286 291 289 294 292 295 295 294 292 293 293 293 296 296 296
287 287 287 287 287 287 288 288 288 288 288 287 287 287 287 287 287 287 287 287 287 287 285 285 286 286 286 288 289 287 284 282 287 292 292 292 290 291 292 292 293 294 295
288 288 288 287 287 287 287 288 287 287 285 285 286 287 287 287 287 287 287 287 286 286 285 285 286 285 285 284 287 288 288 286 283 282 288 290 289 288 289 290 291 292 293
289 288 288 288 287 287 287 287 288 286 286 286 286 286 286 287 286 286 286 286 285 285 285 285 284 284 285 284 284 285 285 286 286 282 281 283 287 288 288 291 291 291 292
289 288 288 287 287 287 287 287 287 286 286 286 286 286 286 286 286 285 285 285 285 285 284 284 285 284 284 284 284 285 284 282 282 281 280 281 281 284 287 289 288 290 289

GFSSE_sfc_thetae_342.txt.gz
Theta_e
299 300 317 324 328 331 334 336 339 341 342 344 346 347 347 347 347 348 347 347 347 348 348 348 344 343 343 341 340 340 340 340 341 340 341 340 339 337 335 337 338 332 334
300 301 314 320 325 328 331 333 335 336 339 341 344 345 346 346 346 346 345 345 345 346 346 347 346 345 343 342 342 341 339 340 341 340 340 343 342 338 336 336 336 328 330
299 302 307 317 321 323 326 328 331 332 334 337 340 342 342 344 345 345 345 345 345 345 345 345 346 346 345 346 342 340 340 340 341 340 339 333 337 340 336 333 331 332 335
300 302 306 314 318 320 322 324 326 328 330 332 335 336 338 340 341 342 342 343 344 344 344 345 346 345 346 346 342 341 342 341 341 339 332 329 332 339 334 332 331 331 333
299 300 304 312 316 317 319 320 321 322 324 327 329 330 332 334 335 337 338 339 339 341 342 343 344 344 344 344 344 344 343 342 340 336 330 328 327 334 335 335 335 334 334
298 299 303 309 312 314 315 317 317 318 319 321 322 324 326 327 328 331 333 333 335 336 338 339 338 339 340 342 343 344 343 342 339 332 329 332 326 338 336 336 340 341 337
297 298 300 305 307 310 312 313 314 314 315 316 317 318 320 321 322 324 327 327 330 331 332 333 333 334 334 336 341 341 342 339 337 333 335 333 329 340 338 336 338 338 339
297 299 299 304 304 306 307 309 310 311 311 311 312 312 314 315 316 317 319 321 322 324 326 328 328 329 329 333 336 338 336 335 336 333 333 334 338 340 339 336 337 338 339
297 297 297 298 301 305 305 305 306 307 308 309 309 309 309 311 312 312 312 315 316 319 320 321 322 323 324 328 330 327 329 331 330 334 334 333 338 338 336 337 338 338 338
295 296 296 297 298 297 298 303 304 305 306 306 306 306 307 307 307 308 307 310 312 314 315 316 317 318 320 322 323 321 322 325 328 330 329 333 339 340 340 339 339 340 340
295 294 295 295 296 297 298 300 302 303 303 303 302 304 303 301 301 302 306 307 309 310 311 313 314 315 315 318 319 319 320 320 321 330 324 326 334 339 340 339 339 339 339
291 293 293 294 295 296 298 297 297 298 297 297 296 298 299 299 300 303 304 306 306 306 308 309 310 309 309 306 307 314 314 315 317 318 318 323 331 336 337 337 338 339 339
291 292 293 294 294 294 295 295 295 295 295 295 294 295 297 298 297 297 297 298 298 301 299 300 301 302 302 302 303 303 304 306 311 314 317 319 324 327 331 333 334 336 337
291 291 292 292 293 294 295 294 293 293 293 292 292 293 294 294 294 294 294 294 295 295 295 296 297 299 300 300 301 301 302 302 304 307 313 315 315 320 323 326 328 329 330
290 290 290 291 292 292 291 291 291 291 290 290 289 290 291 290 290 291 291 291 292 293 293 293 294 295 296 297 299 300 301 303 304 307 309 311 311 313 317 320 321 324 325
290 289 289 289 290 290 289 289 288 288 288 288 288 288 289 289 289 289 289 289 290 291 291 292 292 293 293 294 295 298 302 301 304 302 303 299 307 307 310 314 315 318 320
288 290 288 288 289 288 288 288 287 288 288 287 287 287 287 288 287 287 287 287 288 290 290 290 291 292 291 293 292 296 301 298 301 298 296 296 298 301 304 307 309 313 316
287 287 287 289 287 287 286 287 287 287 286 286 286 286 287 287 287 286 286 286 287 288 288 289 289 289 289 289 289 294 297 296 298 295 293 293 294 294 297 303 304 308 310
286 286 287 287 286 287 287 286 286 286 285 285 285 285 286 287 287 286 285 286 287 286 286 287 288 288 287 288 290 294 295 293 295 294 291 291 292 292 292 298 299 301 304
285 285 286 287 286 286 286 286 286 286 285 285 284 285 286 286 286 285 285 285 286 285 284 285 286 287 286 287 290 293 300 291 294 291 291 291 290 291 291 292 292 294 299
284 284 284 284 285 285 285 284 284 283 283 283 284 286 286 285 286 285 284 284 285 284 283 284 285 285 285 287 285 288 295 289 289 290 290 288 288 289 289 290 291 292 293
283 283 284 284 285 285 285 284 284 282 283 283 285 285 286 285 286 285 284 284 284 283 283 282 283 283 284 286 282 284 282 287 286 289 288 288 286 287 288 289 290 290 290
281 282 283 284 284 284 285 285 284 284 283 282 283 283 284 285 285 285 284 284 283 283 282 281 282 282 281 283 284 282 278 277 282 286 285 285 285 285 286 287 289 289 288
281 282 283 284 284 284 284 284 283 281 279 281 282 283 283 285 284 284 284 283 283 283 281 282 283 281 281 280 283 285 283 282 278 277 282 283 284 285 284 285 286 288 287
283 282 282 283 283 283 283 284 283 281 281 281 282 282 282 283 283 283 284 282 281 282 281 281 280 280 281 280 280 281 281 281 282 278 276 278 282 283 284 285 284 286 286
283 283 282 283 282 283 283 282 282 281 281 280 280 280 281 281 282 282 283 282 281 281 281 281 281 280 280 280 280 281 280 279 278 278 276 277 277 279 282 284 283 283 284

GFSSE_sfc_thetae_345.txt.gz
Theta_e
296 304 319 326 330 333 335 336 338 339 341 344 345 346 347 347 346 346 346 346 346 346 347 348 347 344 344 342 341 340 340 340 340 339 340 340 338 336 336 336 336 329 331
299 306 316 322 326 328 331 333 334 335 338 340 343 344 344 345 346 345 346 345 345 345 345 346 347 347 343 342 340 340 339 340 339 339 338 339 341 338 336 333 334 327 331
300 305 310 319 322 324 326 327 329 332 333 336 338 340 341 343 343 343 343 344 345 345 344 346 345 345 346 344 341 341 340 339 340 338 338 331 335 339 336 333 331 332 331
300 304 308 316 320 321 322 323 324 325 328 331 332 334 335 337 338 340 341 341 341 342 343 343 345 344 344 345 343 341 342 341 340 338 333 330 329 340 333 332 331 331 331
298 303 306 313 317 319 319 320 320 321 322 324 326 328 330 331 333 336 335 336 337 339 341 341 341 341 341 342 343 344 343 342 339 336 332 329 326 337 336 336 334 334 334
297 300 305 310 313 315 316 317 317 317 318 319 320 322 323 325 326 328 329 331 333 334 336 336 336 335 334 336 341 342 342 342 339 335 331 331 331 337 338 338 338 340 340
296 298 301 307 309 311 312 313 314 314 315 315 316 317 318 320 320 321 323 324 326 328 329 330 330 330 331 334 335 339 338 339 336 333 333 334 331 341 339 338 337 337 338
295 297 298 303 306 308 308 310 310 311 312 312 313 313 314 315 315 315 316 319 320 322 322 324 324 325 327 330 331 328 328 331 334 333 333 332 336 340 339 339 337 337 337
296 296 296 297 300 303 305 306 308 309 309 309 310 310 310 309 310 310 311 314 315 317 318 319 319 320 323 323 323 322 324 324 325 329 329 329 337 340 340 338 338 338 339
295 295 295 295 296 296 297 304 305 305 305 305 306 306 306 305 307 307 308 311 312 313 315 315 316 315 316 316 317 321 320 320 321 319 321 327 336 340 339 339 339 339 339
294 294 294 295 295 296 298 299 300 302 301 301 300 303 301 299 300 301 305 306 307 308 310 311 311 311 310 310 312 314 316 315 317 318 321 328 333 338 338 338 338 338 338
291 293 293 294 294 295 297 295 295 296 295 294 293 295 297 296 298 298 299 301 302 303 304 305 307 306 304 301 302 306 304 307 313 315 317 324 328 332 334 333 334 334 335
291 292 293 293 294 294 294 293 293 293 292 291 290 291 293 294 293 293 293 293 293 296 294 296 296 297 297 297 300 300 301 302 307 312 312 318 322 326 328 329 330 330 330
291 291 292 292 292 290 291 291 291 291 289 289 289 290 290 290 290 290 290 290 290 291 291 292 293 294 294 295 297 298 300 302 306 307 306 312 314 319 323 324 325 327 326
289 290 290 290 290 289 288 288 288 288 288 287 287 288 289 288 288 288 288 289 289 290 290 290 291 292 292 293 295 297 300 300 302 299 298 306 308 312 316 319 322 322 323
289 288 288 288 288 288 286 286 286 287 287 287 287 287 288 288 287 287 287 287 287 288 289 289 289 290 290 291 292 297 297 297 293 294 295 296 302 307 309 313 316 316 316
288 288 286 287 287 286 286 286 286 287 287 286 286 287 287 288 286 286 286 286 286 287 287 288 289 289 288 290 290 296 296 294 291 291 292 293 293 300 303 307 310 309 311
286 286 287 288 286 285 285 285 285 286 285 285 286 286 287 287 287 285 285 285 286 286 286 286 287 287 286 287 287 293 293 293 291 290 290 290 291 291 296 301 303 304 305
285 285 285 286 285 285 285 285 284 284 284 284 285 285 285 286 287 285 285 285 285 284 284 285 285 285 285 286 289 294 292 291 291 290 288 289 289 289 289 296 297 298 299
283 284 285 285 285 285 285 284 284 284 284 284 284 285 285 285 285 285 284 284 285 283 283 284 283 284 284 285 289 293 290 290 289 288 287 288 288 288 288 289 290 290 295
282 283 283 284 284 284 284 283 282 281 282 282 284 285 285 285 285 284 284 284 284 283 282 283 283 283 284 285 285 286 288 287 287 287 286 286 286 287 287 288 288 288 288
281 281 282 283 283 284 284 283 282 281 282 283 283 284 285 285 285 285 283 283 283 282 282 282 282 281 282 283 281 282 280 284 284 286 284 284 283 285 285 287 287 287 286
280 280 281 282 282 283 284 283 282 282 281 281 282 282 284 285 284 284 283 283 282 282 281 281 281 281 280 281 283 280 277 277 279 284 283 283 282 283 283 284 286 286 285
279 279 281 282 282 283 283 282 281 279 278 279 281 281 282 283 283 284 283 282 282 282 280 281 281 281 281 279 281 284 281 280 277 276 280 281 282 282 282 283 283 285 284
280 279 280 281 281 282 282 282 280 279 279 280 280 280 281 282 282 283 282 281 280 280 280 280 280 279 280 279 279 280 280 280 279 277 275 277 279 280 281 282 283 282 283
280 280 279 280 280 281 281 281 281 280 279 279 279 279 279 280 280 281 282 280 280 280 280 280 280 279 279 279 280 280 279 278 277 277 275 275 276 278 281 281 281 281 282